Wind_Speed
17 16 17 17 16 16 15 15 14 14 14 14 14 14 14 12 12 12 13 13 14 14 14 15 15 15 15 16 15 14 14 15 15 15 16 16 16 16 16 17 17 18 18 18 18 17 17 17 17 17 18 17 17 17 16 17 17 17 18 18 18 18 18 18 18 18 18 18 18 18 18 18 18 18 18 18 18 17 17 17 17 17 17 16 16
17 16 16 17 15 15 14 14 13 13 13 13 13 12 12 11 11 11 12 13 13 14 14 14 14 15 15 15 15 14 14 15 15 16 16 16 16 16 16 17 17 17 17 17 17 17 17 17 17 17 17 17 17 16 16 17 17 17 17 17 17 17 17 17 17 17 17 17 18 17 18 18 18 18 17 17 17 17 16 16 16 17 16 16 16
16 15 15 15 14 14 13 13 12 11 12 11 11 11 11 10 10 11 12 12 12 13 13 13 14 15 15 15 15 14 14 14 15 16 16 16 16 16 16 17 17 17 17 17 17 17 17 17 17 17 17 17 17 17 17 17 17 17 17 17 17 17 17 17 16 16 16 16 17 17 17 17 17 17 17 17 17 16 16 16 15 16 15 14 15
14 14 14 14 12 12 12 12 11 12 12 11 11 11 11 10 11 12 12 12 12 12 13 13 13 14 14 14 15 14 14 14 15 16 16 16 16 17 16 17 17 17 17 17 17 17 17 17 17 17 17 17 17 17 17 17 17 17 16 16 16 16 16 16 16 16 16 16 16 16 18 18 17 17 17 16 16 16 15 14 14 14 13 13 12
14 14 14 14 12 11 12 11 12 13 13 12 12 12 12 11 12 13 12 12 12 12 13 13 13 13 14 14 14 14 14 14 15 15 16 16 16 17 16 16 16 16 16 17 17 16 17 17 17 17 16 17 17 16 16 17 17 16 16 16 16 16 16 16 16 16 16 16 16 16 17 18 17 16 16 15 15 14 14 13 12 12 12 11 11
14 13 13 13 12 11 11 12 12 12 12 12 12 12 12 12 13 13 13 12 13 13 12 13 13 13 13 14 14 14 14 14 15 15 16 16 16 16 16 16 15 16 16 16 16 16 17 17 17 16 16 16 16 16 16 16 16 16 15 15 15 15 15 15 15 16 15 15 15 15 16 16 16 15 14 14 13 13 12 12 11 11 10 10 10
14 14 13 12 11 12 12 12 11 11 11 11 11 12 12 13 13 13 13 13 12 12 13 13 13 13 13 14 14 14 14 14 15 16 16 16 16 16 16 16 15 15 15 15 15 15 16 16 16 16 16 16 15 15 15 15 15 15 15 15 14 15 15 15 15 15 15 14 14 14 14 14 14 14 13 12 12 11 11 10 10 9 9 9 9
15 14 13 12 12 13 12 12 11 11 11 11 11 11 12 13 13 13 14 13 12 12 13 13 13 13 13 13 14 14 15 15 16 16 16 16 16 16 16 16 15 15 15 15 15 15 15 15 16 16 16 16 15 15 15 15 15 15 15 14 14 14 15 14 14 13 13 13 13 12 12 12 12 13 12 10 10 10 9 9 9 9 8 9 9
14 13 13 13 13 14 12 12 11 10 11 11 11 11 12 12 13 14 14 14 13 13 13 13 13 13 14 14 14 15 15 15 16 16 16 16 16 16 16 16 15 15 15 15 15 15 15 15 16 16 15 15 15 14 15 15 15 15 14 14 14 13 14 13 12 12 11 11 11 11 10 10 10 11 10 8 8 8 7 7 7 8 8 9 9
14 13 13 13 13 12 12 11 10 10 10 11 11 11 12 12 13 13 13 14 13 13 14 14 13 13 14 14 15 15 15 16 16 16 17 16 16 15 15 15 14 14 15 14 14 14 15 15 16 15 15 15 14 15 14 13 14 14 14 13 13 12 12 12 11 11 10 10 9 8 8 7 7 8 8 7 7 7 6 6 6 7 8 8 8
15 14 14 13 12 11 11 10 10 9 10 10 10 11 11 13 13 13 13 13 13 13 14 14 14 14 14 14 15 15 15 16 16 16 17 16 16 15 15 14 14 14 14 14 13 13 14 15 15 15 15 15 14 15 13 12 12 13 14 13 12 11 11 11 11 10 10 10 9 7 7 5 5 6 6 6 6 6 6 6 6 6 7 7 7
16 15 14 13 11 10 11 10 10 9 9 10 11 12 12 13 14 14 13 13 13 14 14 14 14 14 14 14 14 15 15 15 16 17 17 17 16 15 15 14 14 14 14 14 13 13 13 15 15 15 15 15 15 14 13 12 12 13 14 13 12 11 11 11 11 11 10 10 9 9 7 5 4 5 5 5 5 5 5 5 5 6 6 6 6
16 15 14 13 12 10 10 10 10 10 10 11 11 12 12 13 14 14 15 14 14 15 15 14 14 14 14 14 14 14 15 15 16 17 18 17 16 15 15 15 14 14 13 13 13 13 14 15 15 15 15 15 14 13 13 12 11 12 13 13 12 11 11 11 11 10 10 9 9 9 7 6 5 5 5 5 5 5 5 5 5 5 5 5 5
15 14 14 12 12 10 10 10 10 10 10 11 11 12 12 12 14 15 15 14 14 15 15 14 14 14 14 14 14 15 15 15 17 18 17 17 16 15 15 15 14 13 13 12 12 13 13 14 14 14 15 15 13 13 13 12 12 12 12 12 12 11 10 10 10 9 9 8 9 8 7 7 6 6 5 5 5 5 5 5 5 5 4 4 3
14 14 14 13 13 11 11 11 11 10 11 12 12 12 12 12 13 14 14 14 14 14 14 14 14 14 14 14 14 15 16 16 17 18 18 17 16 15 15 15 13 12 12 12 12 12 12 13 14 14 15 14 13 13 14 12 12 11 11 11 11 10 10 10 10 9 8 8 8 7 7 6 6 5 5 4 4 4 4 4 4 4 3 3 3
13 14 14 13 13 12 12 11 11 10 10 12 12 13 13 13 14 14 14 14 14 14 15 15 15 15 15 15 14 15 17 17 17 18 18 18 16 15 15 15 13 13 12 12 13 13 13 14 15 15 15 14 13 13 13 12 11 11 11 11 11 10 10 11 11 9 7 6 6 6 6 5 5 5 4 4 3 3 3 3 3 2 2 3 2
12 12 13 13 13 13 13 12 11 11 11 12 13 14 14 14 15 15 16 15 14 15 15 15 15 15 15 15 15 16 17 18 18 19 19 18 17 15 15 14 14 13 13 13 14 15 15 16 17 17 16 14 14 13 12 13 13 13 12 11 10 10 12 13 12 11 8 6 5 5 5 4 4 4 4 3 2 2 2 2 2 2 2 2 2
12 12 12 13 13 13 13 13 12 12 13 14 14 15 15 16 16 16 16 16 15 15 16 16 15 15 16 16 16 17 18 18 19 19 19 17 16 15 15 14 14 15 16 16 16 17 17 17 17 16 15 15 14 14 14 14 14 14 13 11 8 9 12 12 13 12 9 7 6 5 4 4 3 3 3 2 2 2 2 2 2 2 3 3 3
13 12 13 14 14 14 14 13 13 14 16 17 17 16 16 16 17 17 16 16 16 16 17 17 16 16 17 18 18 18 18 19 19 19 18 17 16 15 15 15 16 17 19 19 19 18 18 17 17 16 16 16 16 16 16 15 14 12 12 10 7 6 9 10 12 13 10 8 6 5 4 3 3 3 3 2 3 3 2 2 3 3 3 3 3
13 14 14 14 14 14 14 14 15 16 17 18 18 18 18 17 17 17 17 17 17 18 18 18 18 18 18 18 20 20 19 19 19 19 18 17 17 16 16 17 18 19 20 21 21 20 20 19 18 17 17 17 17 17 16 14 12 11 11 9 5 5 7 9 12 13 11 7 6 6 5 4 4 4 5 5 4 3 3 3 3 3 3 4 4
14 15 15 15 15 14 14 14 16 17 18 19 20 20 18 18 18 18 19 19 19 20 19 19 19 19 18 19 20 20 20 19 19 19 18 17 17 17 17 18 18 19 20 21 21 20 20 20 19 18 17 16 16 16 15 13 12 11 10 8 4 4 8 11 12 12 10 8 7 7 6 6 6 7 7 6 5 4 5 5 5 5 5 5 5
15 16 15 15 14 14 14 15 17 18 19 20 20 20 20 19 20 20 21 21 21 21 20 19 20 20 20 20 20 20 20 19 18 18 17 17 18 18 18 18 18 19 20 20 20 20 19 19 19 18 16 15 14 14 13 13 13 12 11 8 3 5 9 12 12 11 10 9 9 9 8 8 8 8 7 6 6 6 7 7 7 7 6 6 6
15 17 16 15 14 14 15 16 19 20 20 21 21 22 22 21 21 21 22 22 21 21 20 20 20 21 21 21 21 20 19 18 18 18 18 19 19 19 19 18 18 18 19 19 18 18 17 17 17 17 17 15 14 14 13 12 12 11 11 7 2 6 9 11 12 11 10 10 10 10 9 9 9 8 8 7 8 8 8 8 8 8 7 8 8
16 17 17 16 14 15 16 18 20 20 20 21 22 23 23 22 22 22 22 22 21 21 20 20 21 21 22 21 21 20 19 19 19 19 19 19 19 19 19 18 18 18 17 17 17 17 16 15 14 14 14 14 14 13 12 12 11 11 10 6 2 6 10 11 12 12 11 10 10 10 10 10 10 9 9 9 9 9 9 9 9 8 8 9 9
18 18 18 16 15 15 17 19 20 20 20 21 23 24 24 23 23 23 22 22 21 21 21 21 21 21 22 21 21 20 20 19 19 19 19 19 19 19 18 17 16 16 16 16 16 16 16 15 13 12 11 10 10 11 11 10 10 10 9 5 5 8 10 10 11 12 10 10 11 11 11 11 11 10 10 11 10 10 10 10 9 9 10 10 10
18 18 18 17 16 16 17 19 20 20 20 22 23 24 24 24 24 23 22 22 21 21 21 20 20 20 20 20 20 20 20 20 20 20 20 19 18 17 16 15 14 13 13 14 15 15 15 15 14 12 10 9 9 10 11 10 9 9 8 6 5 7 9 9 11 12 11 12 12 13 13 12 12 12 12 11 11 11 11 11 11 11 11 11 11
18 19 19 18 18 17 17 18 19 20 21 22 23 23 24 23 23 22 21 21 20 21 21 20 19 19 19 19 19 20 20 21 21 20 19 18 17 16 15 14 13 12 11 12 13 14 14 14 13 11 9 9 10 11 12 12 12 11 8 5 5 7 8 8 11 13 14 14 15 14 14 13 13 12 12 12 12 12 13 13 12 12 12 12 12
18 20 20 20 19 18 18 18 19 20 21 21 22 23 23 22 22 21 21 20 20 20 20 19 18 18 17 17 18 19 19 19 19 18 17 16 15 15 14 13 12 12 12 11 12 13 13 12 10 8 7 7 9 10 12 13 13 12 10 7 7 8 8 9 13 15 15 16 16 15 15 14 13 13 13 13 13 14 14 14 14 13 13 12 12
19 21 22 21 21 20 19 18 19 20 21 21 22 23 22 22 21 21 21 21 21 21 20 19 18 17 17 17 17 18 18 17 16 16 16 15 14 13 12 11 11 11 11 11 12 13 12 9 7 5 4 5 7 8 10 12 13 13 12 10 10 10 10 12 15 15 14 14 15 15 15 16 16 15 14 14 14 14 14 14 14 13 12 12 11
20 22 22 22 21 20 20 19 19 20 21 22 22 23 22 21 20 21 22 22 23 22 20 18 17 17 17 17 16 16 16 15 15 14 14 14 13 12 10 10 10 10 10 11 12 13 11 8 5 5 4 5 6 5 5 7 9 12 11 9 10 11 12 13 13 12 11 12 13 13 15 17 17 17 17 16 16 15 14 14 13 13 12 12 12
20 22 21 21 21 21 20 20 20 20 21 22 22 22 22 21 21 22 22 22 22 21 19 18 18 17 16 15 14 14 13 13 13 13 12 12 10 9 8 8 8 8 9 10 12 12 11 8 7 7 6 5 5 4 5 7 7 9 9 7 7 9 11 12 11 11 11 12 12 13 15 16 17 17 17 17 17 16 16 15 14 13 13 13 13
20 21 21 21 22 21 21 21 20 20 20 21 20 20 21 22 22 23 23 22 21 20 19 17 17 15 14 14 13 12 11 12 12 11 11 9 8 7 6 5 5 6 8 10 12 12 11 9 8 8 6 6 5 6 6 8 9 8 8 5 5 7 9 10 11 11 12 12 13 13 13 14 15 16 16 16 16 17 17 16 15 14 14 14 14
20 20 21 21 21 21 20 21 20 19 20 20 19 20 21 21 21 22 22 21 19 18 17 15 14 13 13 13 13 12 11 11 11 10 9 8 6 5 4 4 4 5 7 9 11 12 12 10 8 8 7 7 6 7 7 9 10 10 9 5 4 5 7 8 9 11 12 11 12 13 13 14 14 14 15 15 15 15 16 15 14 14 14 14 15
21 21 22 22 21 21 21 21 21 19 19 19 19 20 21 21 20 20 19 18 17 16 15 14 13 13 13 12 11 11 10 9 9 8 8 6 5 4 5 5 6 7 7 9 11 12 11 9 9 8 8 7 8 7 7 7 8 9 8 4 3 4 4 6 7 9 11 11 11 12 13 14 14 13 13 13 13 14 14 14 14 14 14 15 15
22 23 23 22 20 19 20 21 21 20 20 19 20 21 21 20 19 18 17 15 14 13 15 15 13 13 12 13 11 10 9 8 7 6 5 5 5 6 7 7 8 8 8 10 11 11 10 9 8 8 8 9 9 8 7 8 8 7 6 4 3 3 4 4 5 7 10 11 11 11 12 13 13 13 13 12 12 12 12 13 14 14 14 14 15
23 23 22 22 19 18 17 19 21 21 20 19 20 21 20 18 16 15 13 12 11 9 12 15 15 14 13 13 12 10 10 8 7 7 6 6 6 8 9 8 8 8 10 11 11 10 9 8 7 7 8 10 9 8 8 9 8 6 6 6 3 2 3 2 4 7 9 11 11 10 11 12 11 12 13 13 12 10 10 11 12 13 13 13 14
23 23 22 21 19 17 16 16 19 21 20 18 19 21 19 17 14 13 11 10 9 9 13 15 15 15 13 13 12 11 10 10 10 9 8 8 8 9 10 10 10 9 10 11 11 10 9 8 8 7 8 10 9 9 9 8 8 8 7 5 3 3 3 3 6 9 10 10 10 10 10 10 10 9 10 12 13 10 8 8 9 10 11 11 12
22 21 20 20 18 17 18 19 19 19 18 15 17 20 19 16 12 11 10 9 9 11 14 14 14 14 12 13 12 11 11 12 12 11 10 10 10 10 10 10 10 9 9 10 11 11 9 9 9 8 8 9 9 8 9 9 8 8 7 4 3 4 4 3 6 8 8 8 8 7 8 9 9 9 9 11 12 11 9 7 6 7 9 9 10
20 18 17 18 18 19 20 20 19 18 17 15 17 20 18 16 13 12 12 11 11 12 12 13 13 12 12 12 13 12 11 11 11 11 11 11 11 10 10 9 9 9 9 10 12 12 11 11 10 10 10 9 8 8 9 8 7 8 7 5 5 6 5 4 4 4 4 5 5 4 5 7 9 10 10 10 11 12 11 10 9 8 10 10 11
19 18 17 18 19 21 22 21 19 18 18 19 20 20 19 17 15 14 13 11 11 10 10 12 12 11 11 12 12 12 11 10 9 9 9 10 9 9 9 9 9 9 10 11 13 13 12 11 10 11 10 9 10 10 10 8 7 8 8 7 7 8 6 5 5 4 3 2 2 3 4 5 7 8 10 10 11 11 11 11 11 10 12 13 12
20 19 18 18 19 20 22 23 22 20 20 21 21 20 20 18 16 14 13 11 10 9 9 10 9 10 11 11 11 11 11 10 8 7 7 7 7 8 9 8 8 9 10 12 13 13 13 12 11 10 9 9 11 12 10 8 8 8 7 6 7 8 6 4 4 4 3 3 3 4 5 5 6 7 8 9 10 11 11 12 11 11 13 15 14
22 21 18 17 17 18 21 23 22 21 21 22 22 21 20 19 18 16 15 13 11 9 8 8 7 9 10 10 11 11 10 8 7 6 6 7 7 7 8 8 7 8 10 11 12 13 13 11 10 9 8 8 9 10 8 7 8 8 6 5 5 6 5 4 3 3 2 3 4 4 6 5 5 6 8 9 8 9 11 12 11 10 12 15 16
24 22 19 18 18 17 19 21 21 21 21 22 23 21 19 19 19 18 16 15 13 11 9 8 7 9 10 11 11 11 10 9 7 7 6 7 7 7 7 8 8 8 9 11 12 13 12 11 10 9 8 8 7 8 8 7 7 7 5 3 4 4 4 4 4 3 3 4 5 3 6 5 4 6 6 7 8 8 9 12 11 9 10 13 15
25 24 21 20 19 18 17 19 21 19 20 23 23 21 19 18 20 19 16 15 15 13 11 11 9 10 11 11 12 11 11 10 9 8 7 7 7 7 7 7 8 9 10 10 11 11 11 10 9 8 7 7 7 8 8 7 7 5 3 2 3 2 2 3 4 3 2 4 6 4 3 3 4 6 6 5 7 7 8 11 10 10 12 12 14
26 26 23 21 21 18 16 19 21 20 21 23 23 22 20 18 19 19 17 16 16 15 14 14 12 11 11 11 12 12 11 11 10 9 8 7 7 7 7 7 7 8 10 10 9 10 10 10 8 7 7 7 7 8 7 7 6 5 3 1 1 1 1 3 5 4 3 5 6 4 2 0 3 6 6 5 6 7 7 10 11 11 12 11 13
27 27 24 22 22 19 18 20 22 22 22 22 22 22 20 18 19 19 18 17 17 16 15 14 12 11 11 11 12 12 12 11 11 9 8 8 7 7 8 8 8 8 9 9 9 10 9 9 8 7 7 7 7 7 7 7 6 6 4 2 1 2 2 2 3 3 4 6 5 4 4 2 4 5 5 5 5 5 6 9 11 11 11 11 14
28 26 24 24 23 21 20 22 22 22 22 21 21 21 20 19 18 18 17 16 16 16 14 11 11 11 11 11 12 11 11 11 10 9 8 8 7 7 8 8 9 8 8 9 9 10 9 8 8 7 7 7 6 6 7 8 7 7 5 3 3 2 1 1 2 2 3 5 5 4 4 4 4 5 5 5 5 4 5 9 9 10 11 12 13
28 27 26 25 23 22 23 23 23 22 22 21 21 20 20 19 18 18 17 16 15 15 14 11 11 12 11 11 12 11 11 10 9 8 8 8 6 7 7 8 10 9 8 9 9 9 9 8 8 7 8 7 6 5 5 7 7 6 4 3 2 1 1 1 0 2 2 3 4 4 4 4 4 5 5 4 4 4 6 8 8 8 11 12 13
28 28 27 25 23 23 23 23 23 23 21 21 21 20 19 18 19 19 18 17 16 15 14 12 11 11 11 11 11 11 10 10 9 8 8 8 7 7 7 8 9 9 9 8 8 8 8 7 7 8 8 9 7 5 5 5 5 6 4 2 1 1 1 2 2 3 4 5 5 6 6 6 6 5 5 5 4 4 6 8 9 9 10 12 14
28 28 27 25 23 23 23 23 23 23 22 21 20 20 19 18 19 20 19 19 18 17 14 13 12 12 12 11 11 11 10 9 9 8 8 8 8 8 8 9 9 9 9 8 7 7 7 7 7 7 8 8 8 7 6 5 5 6 6 4 3 2 3 5 5 4 5 6 6 6 6 7 7 5 4 4 4 4 5 8 10 10 10 12 14
27 28 28 26 24 23 23 23 23 22 22 21 20 20 19 19 19 20 20 19 19 18 15 15 14 13 13 10 11 12 10 9 10 9 9 9 9 9 9 10 9 9 10 9 8 7 7 8 7 7 7 7 8 8 7 6 6 7 7 5 5 5 5 5 6 6 7 8 8 8 8 8 8 7 6 6 6 6 7 9 10 11 11 13 13
Wind_Direction
139 136 134 132 133 134 132 134 133 133 130 127 125 121 121 119 118 115 115 118 122 126 129 127 128 131 132 130 126 125 122 118 115 117 117 115 113 112 112 114 116 117 117 117 116 115 113 111 110 110 107 106 105 103 103 103 101 101 102 101 100 99 99 98 98 99 99 100 101 102 102 101 101 100 100 100 100 100 101 101 102 100 100 101 103
137 139 140 138 139 138 135 137 137 139 135 130 126 123 124 124 123 121 119 120 124 129 132 130 130 132 132 130 128 127 124 119 117 118 117 116 116 115 116 118 119 119 119 118 117 114 113 112 110 110 108 108 105 104 103 104 105 103 102 101 100 99 99 98 99 100 100 101 101 101 101 101 102 102 101 101 101 100 99 99 100 99 99 99 99
139 143 145 142 142 140 138 138 138 137 130 125 123 125 126 128 130 128 124 123 127 131 132 131 131 132 132 130 129 128 125 122 121 121 119 120 118 117 118 121 122 121 121 120 118 115 113 111 110 111 111 110 106 103 102 102 103 103 102 100 100 99 100 100 99 100 100 102 103 103 103 102 102 102 102 102 102 101 99 98 97 97 98 98 99
144 144 146 143 147 145 140 138 137 133 127 127 129 131 130 132 133 130 129 128 131 134 136 135 134 132 132 130 130 129 126 125 125 123 122 124 122 120 122 124 124 121 123 122 119 117 115 114 112 110 111 110 108 106 103 102 102 101 100 99 99 99 99 99 99 98 100 103 104 106 107 105 104 103 103 103 100 100 99 98 98 98 100 103 104
147 146 147 147 151 146 140 139 137 135 133 137 139 139 136 136 135 134 134 134 135 137 139 137 136 133 131 130 131 131 128 128 128 126 127 128 126 125 125 127 125 120 123 124 121 119 116 116 113 111 111 111 110 108 106 105 104 102 101 100 100 100 99 98 99 99 100 103 106 106 106 105 104 103 103 102 101 100 100 99 98 98 100 102 106
148 149 151 150 148 143 141 139 136 137 139 144 145 142 139 137 136 137 137 138 141 141 141 139 138 136 135 134 134 134 131 132 131 129 131 131 129 128 125 127 127 123 122 124 124 121 118 117 116 114 114 112 111 109 107 107 106 105 103 103 102 101 101 100 101 102 102 104 106 105 103 104 105 104 102 101 101 101 100 99 99 100 102 104 107
154 155 155 153 147 144 143 140 140 143 145 149 147 144 139 137 137 140 141 142 145 144 143 142 140 140 140 139 136 136 136 136 134 133 134 133 131 130 126 125 127 126 123 123 125 123 119 119 118 117 116 116 114 112 110 108 106 105 103 102 101 101 102 101 100 101 102 104 105 104 103 104 105 104 102 102 102 101 99 99 99 100 106 109 108
160 158 153 151 147 146 146 145 146 149 150 150 147 145 142 142 142 144 145 143 145 147 146 143 141 141 142 142 139 138 140 140 137 135 135 135 133 131 127 125 126 127 127 125 125 124 121 119 119 119 119 118 117 116 114 110 108 105 103 99 98 100 101 99 97 98 99 101 101 101 102 102 104 104 103 103 101 99 98 98 97 96 102 108 110
158 150 147 148 146 147 148 147 149 149 147 146 145 144 146 149 148 147 147 146 147 146 144 141 140 143 144 143 141 139 142 141 138 137 137 136 134 131 127 125 123 124 128 128 126 124 122 121 122 122 122 122 121 121 116 112 111 107 103 99 97 98 98 98 95 95 96 97 97 98 100 103 106 106 104 103 102 101 100 98 95 94 99 107 112
150 144 146 146 144 145 146 147 147 146 143 143 144 145 149 151 150 148 147 148 147 144 141 141 141 143 143 143 142 142 144 140 139 139 138 136 133 131 127 125 124 124 127 128 128 125 124 125 125 126 125 125 124 121 117 113 110 107 105 102 100 97 97 98 95 92 90 90 92 98 102 106 108 107 107 108 104 100 98 99 99 100 106 114 115
146 145 146 142 141 143 143 145 143 141 140 141 144 146 149 150 150 147 146 147 145 143 142 143 143 142 142 144 145 145 143 140 139 137 135 135 133 131 127 124 125 127 127 128 130 128 127 127 128 129 128 127 127 123 117 111 106 106 107 105 104 101 98 95 90 84 81 80 81 89 99 108 111 110 112 110 103 98 99 104 108 113 119 123 121
146 145 143 141 141 144 144 145 144 143 143 144 145 145 148 147 146 147 148 149 147 145 144 144 145 144 144 144 146 144 141 140 137 134 134 135 133 128 123 120 121 125 128 130 132 133 131 130 132 131 131 130 127 123 116 112 107 105 107 108 106 101 95 88 83 79 74 73 75 78 88 103 112 113 114 112 105 104 106 109 116 124 126 126 124
143 143 142 141 142 146 146 146 148 149 147 143 141 141 144 144 143 146 148 151 150 147 145 145 146 146 146 144 144 143 140 139 135 133 134 134 130 123 119 118 117 121 125 129 133 137 138 137 136 134 134 132 125 119 115 114 109 104 103 103 100 93 87 82 79 76 69 69 75 79 84 93 100 105 109 108 103 103 103 105 109 115 118 116 116
142 144 142 141 141 144 146 147 148 148 146 139 137 138 140 140 139 143 146 148 148 146 144 145 145 144 144 142 142 142 142 140 136 135 135 131 126 123 120 115 113 117 121 128 135 138 142 143 139 135 134 129 121 116 114 111 109 105 101 98 93 83 72 71 72 70 67 67 73 78 83 88 92 96 102 101 96 94 92 91 94 97 100 99 95
144 143 141 141 141 142 145 145 144 144 144 138 138 138 137 138 137 140 144 144 144 144 142 142 143 141 141 141 141 142 143 140 137 136 133 130 126 124 120 114 113 114 119 128 136 138 140 145 142 135 131 127 122 120 116 111 110 105 99 96 90 80 65 60 61 59 59 61 67 74 78 80 85 89 93 91 84 80 79 76 79 82 75 69 63
145 142 142 144 141 142 143 141 139 140 140 136 137 137 137 140 141 143 142 142 142 142 141 140 139 138 137 138 139 140 141 139 136 134 131 128 126 124 119 115 112 111 116 124 131 132 132 137 137 133 129 127 125 123 117 111 110 103 100 99 90 82 69 59 55 51 50 53 59 67 73 74 75 78 79 75 67 63 65 64 63 65 63 55 41
145 144 145 144 143 144 143 141 139 136 134 133 134 134 136 138 141 143 141 141 140 139 138 137 135 135 135 135 136 137 138 137 135 132 130 130 128 124 118 113 110 108 109 115 122 121 120 124 127 129 128 127 126 122 116 110 106 101 100 102 96 80 65 55 49 44 41 45 51 58 65 65 65 68 68 63 57 50 43 40 34 34 43 35 22
143 145 144 143 145 145 144 142 140 136 132 130 130 130 133 135 136 138 138 138 136 134 135 134 133 131 131 131 131 131 133 135 133 132 132 132 130 124 118 113 109 107 104 107 113 115 115 118 121 124 125 124 123 120 115 107 103 98 93 93 99 75 53 47 45 40 38 42 47 52 55 55 60 62 61 55 39 23 11 2 357 8 17 8 358
143 142 140 143 145 144 142 138 135 132 129 127 127 128 131 133 133 135 134 134 132 132 132 130 128 126 126 128 129 130 131 133 132 132 133 132 129 123 119 115 111 107 104 105 109 112 114 116 118 120 121 120 120 117 113 108 105 101 94 89 92 67 42 45 45 36 34 41 48 55 56 57 64 62 53 43 26 9 359 356 2 10 6 356 351
143 138 136 140 143 143 141 137 134 129 127 126 126 126 129 133 133 132 130 129 129 129 128 126 125 124 126 129 130 131 131 131 132 132 132 133 130 124 120 115 111 107 105 106 108 111 112 112 112 114 116 117 117 116 113 111 109 107 106 108 102 57 41 44 37 25 26 37 48 59 58 57 60 55 47 40 31 20 19 21 24 24 19 14 11
142 136 134 139 142 143 140 135 135 132 131 127 125 125 128 133 131 129 128 127 129 128 128 127 126 126 127 130 130 129 130 131 132 132 133 132 128 122 117 112 110 108 108 108 109 109 108 107 107 110 114 117 118 117 115 112 113 116 122 139 138 55 48 41 27 16 21 32 43 52 51 51 52 50 47 42 39 38 41 40 39 38 35 34 32
143 137 136 141 142 141 137 134 134 135 134 130 127 127 130 131 129 128 129 129 129 128 128 128 127 127 128 128 128 129 130 131 131 131 130 127 121 116 113 111 111 110 109 109 109 108 105 104 105 108 110 113 117 119 120 117 119 123 133 153 135 59 53 37 24 19 27 35 42 48 50 49 51 52 51 49 48 49 46 43 43 45 45 48 49
144 138 139 143 143 140 138 134 133 135 135 132 130 130 130 129 128 129 128 128 127 128 129 128 127 128 128 128 129 130 130 129 128 126 124 121 118 116 114 114 113 112 112 112 112 110 108 106 105 106 107 108 110 113 117 115 118 124 137 155 110 54 47 32 24 26 37 41 44 50 52 52 52 53 55 54 53 51 51 51 53 56 58 58 58
142 139 141 142 143 141 139 135 132 134 135 133 131 130 129 128 128 128 127 127 126 129 130 131 130 129 129 129 129 128 125 123 121 120 121 120 119 118 117 115 116 117 117 116 117 116 114 112 109 106 108 109 107 106 107 108 111 117 135 152 90 54 41 31 24 28 42 46 50 54 54 56 55 55 56 56 57 59 61 62 63 62 61 58 55
143 141 141 140 141 141 138 134 132 134 135 133 132 131 131 130 130 129 128 127 126 129 130 129 128 127 127 126 124 122 120 118 118 119 120 120 118 116 114 113 115 116 117 118 119 119 118 117 116 115 116 120 117 108 102 105 110 115 131 137 84 56 39 32 25 30 46 50 54 58 59 61 60 62 64 64 66 68 68 65 63 60 58 56 53
146 143 140 137 139 141 136 132 132 134 135 134 133 132 132 131 131 130 130 128 126 127 126 126 124 123 123 122 121 120 120 120 119 120 120 119 115 112 111 111 113 114 117 119 121 122 123 122 123 124 125 131 132 122 114 112 114 118 132 127 75 50 38 33 31 39 53 57 61 65 66 67 67 70 70 71 71 69 66 63 60 57 54 52 49
149 143 138 136 139 138 135 133 134 137 137 136 135 134 134 132 130 130 130 127 127 127 126 126 124 123 122 121 120 119 122 122 122 121 120 117 112 110 110 113 116 118 121 123 127 128 128 130 130 130 130 134 134 125 120 120 117 115 124 117 61 50 47 40 44 55 65 69 71 72 72 73 73 74 75 75 73 69 65 60 55 50 47 46 43
153 147 140 136 138 137 135 135 137 139 139 138 137 137 135 133 131 131 131 129 129 130 129 127 124 122 122 122 121 120 122 122 122 122 121 119 115 113 112 115 117 119 124 128 134 135 133 136 132 127 128 136 135 121 111 108 104 102 103 89 66 63 60 58 64 70 75 76 75 74 75 75 75 75 75 75 72 67 63 57 52 47 44 43 41
156 151 144 139 138 137 135 135 138 140 140 141 141 139 135 132 131 130 130 131 131 131 129 126 123 121 122 126 125 122 122 120 121 121 122 121 121 121 119 120 119 119 123 128 138 139 139 140 132 127 135 148 148 129 109 99 90 90 92 80 74 74 70 74 76 77 79 75 67 68 75 77 77 76 75 72 70 66 61 57 53 51 48 45 42
156 152 148 144 141 137 136 136 138 140 141 143 143 140 137 134 131 129 130 131 133 132 129 125 122 120 122 126 127 124 121 120 121 122 123 124 127 126 122 121 119 119 124 132 142 145 147 149 150 151 152 157 156 151 132 116 95 89 93 80 74 79 79 80 76 72 72 68 63 69 78 81 79 76 72 67 64 63 61 59 56 55 53 51 49
159 155 153 150 144 139 138 138 139 140 140 142 143 141 138 137 132 129 129 130 131 129 126 124 122 120 119 122 124 124 123 124 126 128 129 128 127 121 115 115 112 117 126 139 148 152 155 154 154 150 150 156 159 176 170 145 125 100 97 85 74 82 84 79 68 63 64 69 75 79 82 82 81 76 71 66 62 60 59 59 59 59 60 59 59
161 160 158 155 148 143 142 141 141 140 140 140 140 140 138 137 133 129 127 125 125 124 124 123 123 123 119 118 121 123 125 129 131 131 132 129 125 116 108 108 110 118 126 141 152 158 160 154 145 138 137 144 152 181 169 141 135 115 100 94 84 85 84 75 62 62 68 77 85 85 80 77 78 76 73 71 66 62 60 61 62 63 66 67 68
159 159 157 156 151 148 146 142 141 140 141 140 140 142 140 138 134 131 128 126 127 128 129 130 133 134 128 123 124 128 131 134 137 137 136 129 120 115 120 133 141 139 133 139 149 156 157 145 130 118 114 126 146 163 152 134 131 117 105 108 102 92 87 72 62 64 68 81 88 84 78 71 71 71 71 72 70 67 65 66 68 70 73 73 72
157 157 154 153 150 149 148 144 141 141 142 142 143 143 141 140 137 135 134 134 136 139 141 140 145 147 140 136 136 141 143 141 144 143 137 127 117 127 146 157 156 153 150 144 145 149 147 132 119 114 111 126 137 131 128 137 133 113 103 113 114 100 94 77 69 66 66 81 88 80 75 70 67 65 64 67 69 71 73 76 78 79 80 77 74
156 155 153 151 150 149 150 147 142 141 143 142 144 142 139 139 138 139 141 142 144 149 151 151 155 156 152 153 154 156 154 151 152 144 136 128 135 146 146 149 150 149 152 149 148 147 142 131 121 114 116 130 132 117 114 134 137 117 104 130 150 114 110 88 61 66 75 87 85 76 73 68 66 64 62 61 63 70 77 82 83 82 78 73 71
158 156 156 154 153 151 153 153 146 144 143 142 143 141 138 138 141 145 147 148 154 170 170 164 165 168 166 165 171 172 164 161 160 151 147 145 147 150 144 145 149 144 144 148 150 148 143 136 122 115 125 135 135 129 127 128 132 129 123 137 141 120 130 90 54 81 93 93 83 75 72 65 62 63 60 56 57 65 73 79 81 78 71 65 63
160 161 160 158 157 156 157 156 148 144 143 144 146 144 141 141 145 150 153 158 175 186 177 171 172 174 174 173 180 179 165 160 156 148 147 148 148 148 144 144 145 143 145 149 149 149 146 134 119 115 128 136 131 131 139 138 135 138 142 140 112 104 131 88 82 97 98 93 84 74 67 61 53 49 49 49 51 58 64 69 72 68 64 60 54
162 162 160 159 164 164 157 150 146 145 147 151 151 147 143 144 149 152 155 162 171 168 165 168 171 173 175 177 181 176 162 157 153 146 144 148 152 153 151 145 140 140 148 155 154 152 146 135 125 121 130 138 130 131 142 148 148 149 150 139 104 110 123 111 102 102 97 91 83 67 58 53 45 40 44 46 48 51 52 53 54 51 50 49 44
163 161 161 164 170 167 156 152 151 151 157 159 152 147 146 151 158 153 149 151 153 156 162 167 167 167 170 174 179 176 167 160 153 148 146 149 154 159 159 150 141 142 150 159 157 151 145 138 131 127 130 130 124 137 153 160 168 164 148 125 130 138 133 133 126 114 105 93 83 72 53 41 39 45 54 54 49 47 46 47 46 43 41 36 32
164 163 167 170 169 167 162 162 163 162 163 159 153 152 154 161 167 159 152 153 155 158 160 163 165 167 169 174 179 181 179 170 158 151 147 148 154 159 161 155 151 150 154 160 156 151 148 141 135 132 131 124 119 133 145 149 155 154 142 130 144 152 144 144 149 146 135 119 117 97 71 40 34 44 54 52 46 43 42 41 38 41 40 30 26
168 170 173 174 174 173 171 170 169 171 169 161 158 158 160 167 176 173 167 167 170 171 163 157 160 167 173 177 178 183 186 176 167 160 151 154 161 161 159 155 152 149 151 159 160 158 154 146 139 135 132 128 128 136 137 134 138 141 140 139 149 157 159 159 161 161 153 162 165 108 77 53 37 40 44 41 39 39 34 29 30 35 36 28 24
173 178 180 181 185 183 178 175 173 174 172 166 162 161 164 171 178 180 179 179 183 184 177 166 167 172 175 179 180 183 186 183 179 176 170 171 169 163 161 153 145 142 145 154 162 162 158 150 144 139 136 132 135 146 154 158 155 146 144 152 157 167 183 198 208 202 181 175 170 109 82 71 43 32 36 36 32 33 28 20 19 22 25 24 20
178 182 185 187 188 181 178 178 176 175 173 168 165 166 170 175 179 181 181 187 191 191 189 187 188 181 176 182 183 181 185 192 190 180 173 175 171 164 161 154 145 145 148 154 161 163 160 155 151 145 143 137 139 153 165 178 179 165 163 184 195 197 203 218 219 215 229 205 188 132 85 77 31 8 18 30 25 24 23 13 12 16 15 15 14
181 184 187 188 186 178 176 180 178 175 173 170 170 173 176 179 182 183 183 188 190 192 199 206 202 181 174 181 181 177 182 189 190 179 169 174 173 160 157 158 153 150 152 155 161 166 165 164 160 152 147 141 143 153 162 173 179 180 185 193 206 224 209 188 171 164 203 192 182 172 97 60 0 349 349 6 14 13 15 10 8 10 8 10 12
185 187 190 189 186 181 179 180 178 176 175 174 175 178 182 184 184 183 184 184 184 189 199 208 203 179 172 179 178 176 179 182 185 182 174 175 173 162 160 162 159 156 155 154 157 164 168 169 163 153 150 149 151 158 164 168 172 183 206 223 217 321 40 158 154 132 148 158 161 177 167 312 311 333 333 331 352 355 1 7 7 3 4 8 8
187 190 192 191 190 189 186 180 178 179 180 180 181 184 188 190 190 189 187 184 185 189 196 202 196 177 170 177 179 177 178 179 179 180 179 175 171 170 171 164 162 166 162 159 158 162 168 171 166 156 154 155 156 161 165 168 171 171 174 178 151 48 38 167 178 142 144 159 166 188 197 232 284 306 310 304 323 341 354 1 3 2 1 360 359
188 190 192 194 195 194 189 181 180 182 182 185 187 188 190 193 198 199 195 192 191 190 190 189 181 173 170 177 181 178 181 183 177 176 177 178 175 174 175 170 170 172 170 168 164 164 170 172 172 172 167 164 162 166 163 160 163 157 150 152 142 111 66 170 192 180 165 180 195 213 217 236 285 300 295 292 300 316 345 354 357 360 355 348 349
190 191 194 198 199 194 188 184 183 183 183 186 188 188 189 193 199 204 204 201 196 190 186 181 175 173 175 181 182 181 187 186 178 179 179 180 182 178 178 179 178 178 181 180 171 172 177 173 179 190 188 182 178 178 166 157 168 171 159 155 154 150 172 145 176 260 270 246 228 230 231 248 284 300 295 289 287 289 318 340 344 342 342 340 342
194 195 198 203 202 194 187 186 188 187 187 188 188 188 190 193 197 202 204 200 196 192 187 184 181 178 179 183 185 189 192 184 177 183 183 180 184 186 188 189 186 185 187 186 178 180 183 179 186 192 193 197 197 196 185 174 191 197 189 184 191 259 247 262 294 274 277 294 275 251 249 265 279 289 288 286 288 288 302 324 327 323 331 338 339
197 198 200 202 202 197 191 190 190 189 190 191 190 188 189 193 195 196 196 192 189 190 187 185 186 187 185 185 189 194 194 184 179 183 186 187 189 192 194 195 195 191 189 191 189 189 189 191 192 184 185 199 204 207 205 203 216 218 214 216 225 260 270 269 282 272 265 288 292 272 271 287 294 296 292 288 296 301 304 318 324 321 324 332 335
196 197 199 201 200 199 198 195 193 191 191 192 192 191 190 192 192 191 192 189 187 189 186 185 190 193 191 189 193 194 193 190 187 187 190 194 197 197 197 199 205 203 198 201 204 205 202 198 196 185 183 195 202 208 211 212 225 227 221 226 236 248 261 262 270 273 271 282 290 284 284 292 297 301 304 306 305 305 311 315 316 314 317 327 332
Height
1557 1558 1559 1559 1560 1561 1562 1562 1563 1563 1563 1563 1563 1563 1563 1563 1563 1563 1563 1564 1564 1564 1564 1564 1565 1565 1565 1564 1565 1565 1565 1565 1565 1565 1565 1565 1565 1565 1565 1565 1566 1566 1567 1567 1567 1567 1567 1567 1567 1567 1567 1567 1568 1569 1570 1570 1570 1571 1571 1571 1571 1571 1570 1570 1571 1571 1571 1571 1571 1570 1570 1570 1570 1570 1570 1571 1571 1571 1570 1570 1570 1570 1570 1571 1571
1558 1559 1559 1560 1561 1562 1563 1563 1563 1563 1563 1563 1563 1564 1564 1564 1564 1564 1564 1564 1564 1564 1565 1565 1565 1565 1565 1565 1565 1565 1566 1566 1566 1566 1566 1566 1566 1566 1566 1567 1567 1567 1568 1568 1568 1568 1568 1568 1568 1568 1568 1569 1569 1570 1571 1571 1572 1572 1572 1572 1572 1572 1572 1572 1572 1572 1572 1572 1572 1572 1572 1572 1572 1572 1572 1572 1572 1572 1571 1571 1571 1571 1571 1572 1572
1559 1560 1560 1561 1562 1562 1563 1563 1563 1563 1564 1564 1564 1564 1564 1564 1564 1564 1564 1565 1565 1565 1565 1565 1566 1566 1566 1566 1566 1566 1567 1567 1567 1567 1567 1568 1568 1568 1568 1568 1568 1568 1569 1569 1570 1570 1570 1570 1570 1570 1570 1570 1571 1572 1572 1573 1573 1573 1573 1574 1574 1574 1573 1573 1573 1573 1573 1573 1573 1573 1573 1573 1573 1573 1573 1573 1573 1573 1573 1573 1573 1573 1573 1573 1573
1559 1560 1561 1561 1562 1563 1563 1564 1564 1564 1564 1564 1565 1565 1565 1565 1564 1565 1565 1565 1565 1565 1566 1566 1566 1566 1567 1567 1567 1567 1567 1568 1568 1568 1568 1568 1569 1569 1569 1569 1569 1570 1570 1570 1571 1571 1571 1571 1571 1571 1572 1572 1572 1573 1573 1574 1574 1574 1574 1575 1575 1575 1575 1575 1575 1575 1575 1574 1574 1574 1574 1574 1574 1574 1574 1574 1574 1574 1574 1574 1574 1574 1574 1574 1574
1560 1560 1561 1561 1562 1563 1564 1564 1564 1564 1564 1564 1565 1565 1565 1565 1565 1565 1565 1566 1566 1566 1566 1566 1567 1567 1567 1567 1568 1568 1568 1568 1569 1569 1569 1569 1570 1571 1571 1571 1571 1571 1571 1571 1572 1572 1572 1572 1572 1573 1573 1573 1574 1574 1575 1575 1575 1575 1575 1576 1576 1576 1576 1576 1576 1576 1576 1576 1576 1575 1575 1575 1575 1575 1575 1575 1575 1575 1575 1575 1575 1575 1575 1575 1575
1560 1560 1561 1562 1563 1563 1564 1565 1565 1565 1565 1565 1565 1565 1565 1565 1566 1566 1566 1566 1566 1567 1567 1567 1567 1567 1567 1568 1569 1569 1569 1569 1570 1570 1570 1571 1572 1573 1572 1572 1572 1572 1572 1572 1573 1573 1573 1573 1574 1574 1574 1575 1575 1575 1576 1576 1576 1576 1576 1577 1577 1577 1577 1577 1577 1577 1577 1577 1577 1577 1576 1576 1576 1576 1576 1576 1576 1576 1576 1576 1576 1576 1576 1576 1576
1560 1561 1562 1563 1563 1564 1565 1565 1565 1565 1565 1566 1565 1566 1566 1566 1566 1566 1567 1567 1567 1567 1567 1567 1567 1568 1568 1569 1569 1570 1570 1571 1571 1571 1572 1572 1573 1574 1573 1573 1573 1573 1573 1574 1574 1574 1574 1575 1575 1575 1576 1576 1576 1577 1577 1577 1577 1577 1577 1578 1578 1578 1578 1578 1578 1578 1578 1578 1578 1578 1578 1577 1577 1577 1577 1578 1577 1577 1577 1577 1577 1577 1577 1577 1577
1561 1562 1563 1564 1564 1565 1565 1565 1566 1566 1566 1566 1566 1566 1566 1566 1567 1567 1567 1567 1567 1567 1567 1567 1567 1568 1569 1570 1570 1570 1571 1572 1572 1572 1573 1573 1574 1574 1574 1574 1574 1574 1575 1575 1575 1576 1576 1576 1576 1577 1577 1577 1577 1578 1578 1578 1578 1578 1578 1579 1579 1579 1579 1579 1579 1579 1579 1580 1579 1579 1579 1579 1579 1578 1578 1578 1578 1578 1578 1578 1578 1578 1578 1578 1578
1561 1562 1563 1564 1565 1565 1566 1566 1566 1566 1566 1566 1566 1567 1567 1567 1567 1567 1567 1567 1567 1567 1567 1568 1568 1569 1569 1570 1571 1571 1572 1573 1573 1573 1574 1574 1575 1575 1575 1575 1575 1575 1575 1576 1576 1577 1577 1577 1578 1578 1578 1578 1578 1579 1579 1579 1579 1579 1579 1580 1580 1580 1580 1580 1580 1580 1580 1580 1580 1580 1580 1580 1580 1579 1579 1579 1579 1579 1579 1579 1578 1578 1578 1579 1579
1562 1563 1564 1565 1565 1566 1566 1566 1566 1567 1567 1567 1567 1567 1567 1567 1567 1567 1567 1567 1567 1568 1568 1568 1569 1569 1570 1571 1571 1572 1573 1573 1574 1574 1574 1575 1576 1576 1576 1576 1576 1576 1576 1577 1577 1578 1579 1579 1579 1579 1580 1579 1580 1580 1580 1580 1581 1580 1581 1581 1581 1581 1581 1581 1581 1581 1581 1581 1581 1581 1581 1581 1581 1580 1580 1580 1580 1580 1579 1579 1579 1579 1579 1579 1580
1563 1564 1565 1565 1566 1566 1566 1567 1567 1567 1567 1567 1567 1567 1567 1567 1567 1568 1568 1568 1568 1568 1569 1570 1570 1571 1571 1571 1572 1572 1573 1574 1575 1575 1575 1576 1576 1576 1577 1577 1577 1577 1577 1578 1579 1579 1580 1580 1580 1580 1581 1581 1581 1581 1581 1582 1582 1582 1582 1582 1582 1582 1583 1583 1583 1583 1583 1582 1582 1582 1582 1582 1581 1581 1581 1581 1581 1580 1580 1580 1580 1580 1580 1580 1580
1564 1564 1565 1566 1566 1567 1567 1567 1567 1567 1567 1568 1568 1567 1567 1567 1568 1568 1568 1568 1569 1569 1570 1571 1571 1572 1572 1572 1572 1573 1574 1574 1575 1576 1577 1577 1577 1577 1577 1578 1578 1578 1578 1579 1580 1580 1581 1581 1581 1581 1582 1582 1582 1582 1583 1583 1583 1583 1583 1583 1583 1584 1584 1584 1584 1584 1584 1583 1583 1583 1583 1582 1582 1582 1582 1582 1581 1581 1581 1581 1581 1581 1581 1580 1580
1564 1565 1565 1566 1566 1567 1567 1568 1568 1568 1568 1568 1568 1568 1568 1568 1568 1569 1569 1569 1570 1570 1571 1571 1572 1572 1573 1573 1573 1573 1574 1575 1576 1577 1578 1578 1578 1578 1578 1579 1579 1579 1580 1580 1580 1581 1581 1582 1582 1582 1583 1583 1584 1584 1584 1584 1584 1584 1584 1584 1585 1585 1585 1585 1584 1584 1584 1584 1584 1584 1583 1583 1583 1583 1582 1582 1582 1582 1582 1581 1581 1581 1581 1581 1581
1564 1565 1566 1567 1567 1568 1568 1568 1568 1568 1569 1568 1569 1568 1568 1569 1569 1570 1570 1570 1570 1571 1572 1572 1572 1573 1573 1574 1574 1574 1575 1576 1577 1578 1578 1579 1579 1579 1579 1580 1580 1580 1581 1581 1581 1582 1582 1582 1583 1584 1584 1585 1585 1585 1585 1585 1585 1585 1585 1585 1586 1586 1586 1585 1585 1585 1585 1585 1584 1584 1584 1584 1584 1583 1583 1583 1583 1582 1582 1582 1582 1582 1582 1581 1581
1565 1566 1567 1567 1567 1568 1568 1568 1568 1569 1569 1569 1569 1569 1569 1570 1570 1570 1570 1571 1571 1572 1572 1573 1573 1574 1574 1574 1575 1575 1576 1577 1578 1578 1579 1580 1580 1580 1581 1581 1581 1581 1582 1582 1582 1582 1583 1583 1584 1585 1585 1586 1586 1586 1586 1586 1586 1587 1587 1587 1586 1586 1586 1586 1586 1586 1586 1585 1585 1585 1585 1584 1584 1584 1584 1583 1583 1583 1583 1583 1583 1582 1582 1582 1582
1566 1567 1567 1568 1568 1569 1569 1569 1569 1569 1569 1569 1570 1570 1570 1570 1570 1571 1571 1571 1572 1572 1573 1573 1574 1574 1575 1575 1576 1577 1577 1578 1578 1579 1580 1581 1581 1581 1582 1582 1582 1583 1583 1582 1583 1583 1583 1584 1585 1586 1586 1587 1587 1587 1587 1588 1588 1588 1588 1587 1587 1587 1587 1587 1587 1587 1586 1586 1586 1585 1585 1585 1584 1584 1584 1584 1584 1583 1583 1583 1583 1583 1582 1582 1582
1567 1567 1568 1568 1569 1569 1569 1569 1569 1570 1570 1570 1570 1571 1571 1571 1571 1571 1572 1572 1572 1573 1574 1574 1575 1575 1576 1576 1577 1578 1578 1579 1580 1580 1581 1582 1582 1583 1583 1583 1584 1584 1583 1583 1584 1584 1585 1585 1586 1587 1587 1588 1588 1588 1588 1589 1589 1589 1588 1588 1588 1588 1588 1588 1588 1587 1587 1587 1586 1586 1585 1585 1585 1585 1584 1584 1584 1584 1583 1583 1583 1583 1582 1582 1582
1567 1568 1568 1569 1569 1569 1569 1570 1570 1570 1570 1570 1571 1571 1571 1571 1572 1572 1572 1573 1573 1574 1574 1575 1576 1576 1577 1577 1578 1579 1579 1580 1581 1582 1582 1583 1583 1584 1584 1585 1585 1585 1585 1585 1585 1586 1586 1587 1587 1588 1588 1589 1589 1589 1589 1589 1590 1590 1589 1589 1589 1589 1589 1589 1589 1588 1587 1587 1587 1586 1586 1585 1585 1585 1585 1584 1584 1584 1584 1584 1583 1583 1582 1582 1581
1568 1569 1569 1570 1570 1570 1570 1570 1570 1570 1570 1571 1572 1572 1572 1572 1572 1573 1573 1574 1574 1575 1575 1576 1577 1577 1578 1579 1579 1580 1581 1581 1582 1583 1583 1584 1585 1585 1586 1586 1586 1586 1586 1586 1587 1587 1588 1588 1589 1589 1589 1590 1590 1590 1590 1590 1590 1590 1590 1590 1590 1590 1590 1590 1589 1588 1588 1587 1587 1587 1586 1586 1585 1585 1585 1585 1584 1584 1584 1584 1583 1582 1582 1582 1581
1568 1569 1570 1570 1570 1570 1570 1571 1571 1571 1571 1572 1572 1573 1573 1573 1573 1573 1574 1575 1575 1576 1576 1577 1578 1579 1580 1580 1581 1581 1582 1583 1583 1584 1585 1585 1586 1586 1587 1587 1588 1588 1588 1588 1588 1589 1589 1589 1590 1590 1591 1591 1591 1591 1591 1591 1592 1591 1592 1592 1591 1591 1591 1590 1589 1589 1589 1588 1588 1587 1586 1586 1586 1585 1585 1585 1585 1585 1584 1584 1583 1583 1582 1582 1581
1569 1570 1570 1571 1571 1571 1571 1571 1572 1572 1572 1573 1573 1573 1573 1573 1574 1574 1575 1576 1577 1577 1578 1578 1579 1580 1581 1581 1582 1582 1583 1584 1584 1585 1586 1586 1587 1588 1588 1589 1589 1589 1589 1590 1590 1590 1590 1591 1591 1591 1592 1592 1592 1592 1592 1592 1593 1593 1593 1593 1592 1592 1591 1591 1590 1590 1589 1589 1588 1587 1587 1587 1586 1586 1586 1586 1586 1585 1585 1584 1584 1583 1583 1582 1582
1569 1570 1571 1571 1571 1572 1572 1572 1572 1573 1573 1574 1574 1574 1574 1574 1575 1576 1576 1577 1578 1578 1579 1579 1580 1581 1582 1583 1583 1584 1584 1585 1586 1586 1587 1588 1589 1589 1590 1590 1590 1591 1591 1591 1591 1592 1592 1592 1592 1592 1592 1593 1593 1593 1593 1593 1594 1594 1594 1593 1593 1593 1592 1592 1591 1591 1590 1589 1589 1588 1588 1587 1587 1587 1586 1586 1586 1585 1585 1585 1584 1584 1584 1583 1583
1569 1570 1571 1572 1572 1573 1573 1573 1573 1574 1574 1574 1575 1575 1575 1576 1576 1576 1577 1578 1579 1580 1580 1581 1582 1582 1583 1584 1585 1585 1586 1587 1587 1588 1589 1589 1590 1591 1591 1591 1592 1592 1592 1592 1592 1593 1593 1593 1593 1594 1594 1594 1594 1594 1594 1594 1594 1594 1594 1594 1594 1594 1593 1593 1593 1592 1591 1590 1589 1589 1588 1588 1587 1587 1587 1587 1586 1586 1586 1586 1585 1585 1585 1584 1584
1570 1571 1571 1572 1573 1574 1574 1574 1574 1575 1575 1575 1576 1576 1577 1577 1577 1578 1578 1579 1580 1581 1582 1582 1583 1583 1584 1585 1586 1587 1587 1588 1589 1589 1590 1591 1591 1592 1592 1592 1593 1593 1593 1593 1593 1593 1594 1594 1595 1595 1595 1595 1595 1595 1595 1595 1595 1595 1595 1595 1595 1595 1594 1594 1594 1593 1592 1591 1590 1589 1589 1589 1588 1588 1588 1588 1587 1587 1587 1587 1587 1586 1586 1585 1584
1570 1572 1572 1573 1574 1575 1575 1575 1576 1576 1577 1577 1577 1578 1578 1579 1579 1579 1580 1581 1582 1583 1583 1584 1585 1585 1586 1586 1587 1588 1588 1589 1590 1591 1592 1592 1593 1593 1594 1594 1594 1594 1594 1594 1594 1594 1594 1595 1595 1596 1596 1596 1596 1596 1596 1596 1596 1596 1596 1596 1596 1595 1595 1595 1595 1594 1593 1592 1591 1591 1590 1590 1589 1589 1589 1589 1589 1589 1589 1588 1588 1587 1587 1586 1585
1571 1572 1573 1574 1575 1576 1576 1576 1577 1577 1578 1578 1579 1579 1580 1580 1581 1581 1582 1582 1583 1584 1584 1585 1586 1586 1587 1588 1588 1589 1590 1590 1591 1592 1593 1594 1594 1594 1595 1595 1595 1595 1595 1595 1595 1595 1595 1596 1596 1596 1596 1596 1596 1596 1596 1596 1597 1597 1597 1596 1596 1596 1596 1596 1596 1595 1594 1593 1592 1592 1591 1591 1590 1590 1590 1590 1590 1590 1590 1589 1589 1588 1587 1587 1586
1571 1573 1574 1574 1575 1576 1577 1577 1578 1578 1579 1580 1580 1581 1581 1582 1582 1583 1584 1584 1585 1585 1586 1586 1587 1588 1588 1589 1590 1590 1591 1592 1592 1593 1594 1594 1595 1595 1595 1595 1595 1596 1596 1596 1596 1596 1596 1596 1596 1597 1597 1597 1597 1597 1597 1597 1597 1597 1597 1597 1597 1597 1597 1597 1597 1596 1595 1594 1594 1593 1592 1592 1591 1591 1591 1591 1591 1591 1590 1590 1590 1589 1588 1587 1587
1572 1573 1574 1575 1576 1577 1578 1578 1579 1579 1580 1580 1581 1582 1583 1583 1584 1584 1585 1586 1586 1587 1587 1588 1589 1589 1590 1591 1592 1592 1592 1593 1594 1594 1595 1595 1595 1595 1596 1596 1596 1596 1597 1597 1597 1597 1597 1597 1597 1598 1598 1598 1598 1598 1597 1597 1597 1597 1597 1598 1598 1598 1598 1599 1598 1597 1596 1595 1595 1594 1593 1593 1592 1592 1592 1592 1592 1591 1591 1591 1590 1589 1589 1588 1588
1572 1574 1575 1576 1577 1577 1578 1579 1580 1580 1581 1582 1583 1583 1584 1584 1585 1586 1586 1587 1588 1589 1589 1590 1590 1591 1592 1593 1593 1594 1594 1595 1595 1595 1596 1596 1596 1596 1596 1597 1597 1597 1597 1597 1598 1598 1598 1598 1598 1598 1598 1598 1598 1598 1598 1598 1598 1598 1598 1599 1599 1599 1600 1600 1599 1598 1598 1597 1596 1595 1594 1594 1593 1593 1593 1593 1592 1592 1591 1591 1590 1590 1589 1589 1588
1573 1574 1575 1577 1578 1578 1579 1580 1581 1581 1582 1583 1584 1584 1585 1586 1586 1587 1588 1588 1589 1590 1591 1591 1592 1593 1593 1594 1595 1595 1596 1596 1596 1596 1597 1597 1597 1597 1597 1598 1598 1598 1598 1598 1598 1599 1599 1599 1599 1599 1599 1599 1599 1599 1599 1599 1599 1599 1599 1600 1601 1601 1601 1600 1600 1599 1598 1598 1597 1597 1596 1595 1594 1594 1594 1594 1593 1593 1592 1592 1591 1590 1590 1590 1589
1573 1575 1576 1577 1578 1579 1580 1581 1582 1583 1583 1584 1585 1585 1586 1587 1588 1588 1589 1590 1591 1591 1592 1593 1593 1594 1595 1596 1596 1597 1597 1597 1597 1598 1598 1598 1598 1598 1598 1598 1598 1599 1599 1599 1599 1599 1599 1599 1600 1600 1600 1600 1600 1599 1599 1599 1599 1600 1600 1601 1601 1602 1601 1601 1601 1600 1600 1599 1598 1598 1597 1596 1596 1595 1595 1595 1594 1594 1593 1593 1592 1592 1591 1590 1590
1573 1575 1576 1577 1578 1579 1581 1582 1583 1584 1584 1585 1586 1587 1587 1588 1589 1589 1590 1591 1591 1592 1593 1594 1594 1595 1596 1596 1597 1597 1598 1598 1598 1598 1598 1598 1598 1598 1599 1599 1599 1599 1599 1599 1600 1600 1600 1600 1600 1600 1600 1601 1601 1600 1600 1600 1600 1601 1601 1602 1602 1602 1602 1602 1602 1601 1601 1600 1600 1599 1599 1598 1597 1596 1596 1596 1595 1595 1595 1594 1593 1593 1592 1591 1591
1573 1575 1576 1577 1579 1580 1581 1583 1584 1584 1585 1586 1587 1588 1588 1589 1590 1590 1591 1592 1592 1593 1594 1594 1595 1595 1596 1597 1597 1598 1599 1599 1599 1599 1599 1599 1599 1599 1599 1599 1599 1599 1600 1600 1600 1600 1600 1601 1601 1601 1601 1601 1601 1601 1600 1601 1601 1601 1602 1602 1602 1603 1603 1602 1602 1602 1602 1602 1601 1600 1600 1599 1598 1598 1597 1597 1596 1596 1596 1595 1594 1594 1593 1592 1592
1573 1575 1576 1577 1579 1580 1582 1583 1584 1585 1586 1587 1588 1588 1589 1590 1591 1591 1592 1592 1593 1594 1595 1595 1595 1596 1596 1597 1598 1599 1599 1599 1600 1600 1599 1600 1599 1600 1600 1600 1600 1600 1600 1600 1600 1601 1601 1601 1601 1601 1601 1601 1601 1601 1601 1601 1601 1602 1603 1603 1603 1603 1603 1603 1603 1603 1603 1603 1602 1601 1601 1600 1600 1599 1599 1598 1598 1597 1597 1596 1595 1594 1594 1593 1592
1574 1575 1576 1578 1579 1581 1582 1583 1584 1585 1587 1588 1588 1589 1590 1591 1592 1592 1593 1593 1594 1595 1596 1596 1596 1597 1597 1598 1598 1599 1599 1599 1600 1600 1600 1600 1600 1600 1600 1601 1600 1600 1600 1601 1601 1601 1602 1602 1602 1602 1602 1602 1602 1602 1602 1602 1603 1603 1604 1604 1604 1604 1604 1604 1604 1604 1604 1603 1603 1602 1602 1601 1601 1600 1600 1599 1599 1598 1597 1597 1596 1595 1595 1594 1593
1574 1575 1577 1578 1580 1581 1582 1584 1585 1586 1587 1588 1589 1590 1591 1592 1592 1593 1593 1594 1595 1596 1596 1597 1597 1598 1598 1598 1599 1599 1600 1600 1600 1600 1600 1601 1601 1601 1601 1601 1601 1601 1601 1601 1602 1602 1603 1603 1603 1603 1603 1602 1603 1603 1603 1603 1604 1604 1605 1605 1605 1604 1604 1604 1604 1604 1604 1604 1603 1603 1602 1602 1601 1601 1601 1600 1600 1599 1599 1598 1597 1596 1596 1595 1594
1574 1575 1577 1578 1580 1581 1583 1583 1585 1586 1587 1588 1589 1590 1591 1592 1593 1593 1594 1595 1596 1596 1597 1597 1598 1598 1599 1599 1599 1600 1600 1600 1601 1601 1601 1601 1601 1601 1601 1601 1601 1601 1602 1602 1602 1603 1603 1603 1603 1603 1603 1603 1603 1603 1604 1604 1605 1605 1605 1605 1605 1605 1605 1605 1605 1605 1605 1604 1604 1604 1603 1603 1602 1602 1601 1601 1601 1600 1600 1599 1598 1597 1597 1596 1595
1574 1576 1577 1579 1580 1581 1583 1584 1585 1586 1587 1588 1590 1591 1591 1592 1593 1594 1595 1595 1596 1597 1597 1598 1598 1599 1599 1599 1599 1600 1600 1600 1601 1601 1601 1601 1602 1602 1602 1602 1602 1602 1602 1603 1603 1603 1603 1604 1604 1603 1603 1604 1604 1604 1604 1605 1605 1606 1606 1606 1606 1606 1605 1606 1605 1605 1605 1605 1604 1604 1604 1603 1603 1602 1602 1602 1601 1601 1600 1600 1599 1598 1598 1597 1596
1574 1576 1577 1579 1580 1582 1583 1584 1585 1586 1588 1589 1590 1591 1592 1592 1593 1594 1595 1596 1596 1597 1598 1598 1599 1599 1599 1600 1600 1600 1600 1601 1601 1601 1601 1602 1602 1602 1602 1602 1602 1603 1603 1603 1603 1604 1604 1604 1604 1604 1604 1604 1604 1605 1605 1605 1605 1606 1606 1606 1606 1606 1606 1606 1606 1606 1606 1605 1605 1605 1604 1604 1603 1603 1603 1602 1602 1601 1601 1600 1600 1599 1598 1598 1597
1574 1576 1578 1579 1580 1582 1583 1584 1586 1587 1588 1589 1590 1591 1592 1593 1593 1594 1595 1596 1596 1597 1598 1598 1599 1599 1600 1600 1600 1600 1601 1601 1601 1602 1602 1602 1602 1602 1603 1603 1603 1603 1603 1604 1604 1604 1604 1604 1604 1604 1604 1605 1605 1605 1605 1605 1606 1606 1606 1606 1606 1606 1607 1607 1606 1606 1606 1606 1606 1605 1605 1604 1604 1603 1603 1603 1602 1602 1602 1601 1600 1600 1599 1598 1597
1574 1576 1577 1578 1580 1581 1583 1584 1586 1587 1588 1589 1590 1591 1592 1592 1593 1594 1594 1595 1596 1597 1597 1598 1599 1599 1600 1600 1600 1600 1601 1601 1601 1602 1602 1602 1602 1603 1603 1603 1603 1603 1603 1604 1604 1604 1604 1604 1604 1604 1605 1605 1605 1605 1606 1606 1606 1606 1606 1606 1607 1607 1607 1607 1607 1606 1606 1606 1606 1605 1605 1604 1604 1604 1604 1603 1603 1602 1602 1601 1601 1600 1599 1598 1597
1573 1575 1576 1578 1579 1581 1582 1584 1585 1587 1588 1589 1590 1591 1592 1592 1593 1594 1595 1595 1596 1597 1597 1598 1599 1599 1600 1600 1600 1600 1601 1601 1602 1602 1602 1602 1603 1603 1603 1603 1603 1603 1604 1604 1604 1604 1604 1604 1604 1605 1605 1605 1605 1605 1606 1606 1607 1607 1607 1607 1607 1607 1607 1607 1607 1606 1606 1606 1606 1605 1605 1605 1604 1604 1604 1603 1603 1603 1602 1602 1601 1600 1600 1599 1598
1572 1574 1576 1577 1579 1580 1582 1583 1585 1586 1588 1589 1590 1591 1592 1592 1593 1594 1595 1596 1596 1597 1598 1598 1599 1599 1600 1600 1600 1601 1601 1601 1602 1602 1602 1602 1603 1603 1603 1603 1603 1603 1604 1604 1604 1604 1604 1605 1605 1605 1605 1605 1605 1605 1606 1606 1607 1607 1607 1607 1607 1607 1607 1607 1607 1607 1606 1606 1606 1606 1605 1605 1605 1604 1604 1604 1603 1603 1602 1602 1601 1601 1600 1599 1598
1573 1574 1575 1577 1578 1579 1581 1583 1584 1586 1587 1589 1590 1591 1591 1592 1593 1594 1595 1596 1597 1597 1598 1598 1599 1599 1599 1600 1600 1601 1601 1601 1602 1602 1602 1603 1603 1603 1603 1603 1604 1604 1604 1604 1604 1604 1605 1605 1605 1605 1605 1605 1606 1606 1606 1606 1607 1607 1607 1608 1608 1607 1607 1607 1607 1607 1607 1606 1606 1606 1606 1605 1605 1605 1604 1604 1603 1603 1603 1602 1601 1601 1600 1599 1598
1572 1573 1574 1576 1577 1579 1581 1582 1584 1585 1587 1588 1589 1590 1591 1592 1593 1594 1595 1596 1596 1597 1597 1597 1598 1599 1599 1600 1600 1601 1601 1602 1602 1602 1603 1603 1603 1603 1603 1604 1604 1604 1604 1604 1604 1604 1605 1605 1605 1605 1606 1606 1606 1606 1606 1606 1607 1607 1607 1608 1608 1608 1607 1608 1608 1607 1607 1607 1606 1606 1606 1606 1605 1605 1605 1604 1604 1603 1603 1602 1602 1601 1600 1599 1599
1572 1573 1574 1575 1577 1579 1581 1582 1583 1584 1586 1587 1589 1590 1590 1591 1592 1593 1594 1594 1595 1596 1596 1597 1597 1598 1599 1599 1600 1601 1601 1601 1602 1602 1603 1603 1603 1603 1603 1603 1604 1604 1604 1604 1604 1604 1605 1605 1605 1606 1606 1606 1606 1606 1606 1607 1607 1607 1607 1607 1607 1607 1607 1607 1607 1607 1607 1607 1607 1607 1606 1606 1606 1605 1605 1604 1604 1603 1603 1602 1602 1601 1600 1600 1599
1571 1573 1574 1575 1577 1579 1580 1581 1582 1584 1585 1587 1588 1589 1590 1590 1591 1592 1593 1594 1594 1595 1595 1596 1597 1598 1598 1599 1600 1600 1601 1601 1602 1602 1602 1602 1603 1603 1603 1603 1603 1604 1604 1604 1604 1604 1605 1605 1606 1606 1606 1606 1606 1606 1606 1606 1606 1607 1607 1607 1607 1607 1607 1607 1607 1607 1607 1607 1607 1607 1607 1606 1606 1605 1605 1604 1604 1604 1603 1602 1602 1601 1601 1600 1599
1570 1572 1574 1575 1576 1578 1579 1581 1582 1583 1584 1586 1587 1588 1589 1590 1591 1592 1593 1594 1594 1595 1595 1596 1596 1597 1598 1598 1599 1600 1600 1601 1601 1602 1602 1602 1602 1603 1603 1603 1603 1604 1604 1604 1604 1604 1605 1605 1605 1605 1606 1606 1606 1606 1606 1606 1606 1606 1606 1607 1607 1607 1607 1607 1607 1607 1607 1607 1607 1607 1606 1606 1606 1605 1605 1604 1604 1604 1603 1602 1602 1601 1600 1600 1599
1569 1571 1572 1574 1576 1577 1579 1580 1581 1583 1584 1585 1586 1588 1589 1590 1591 1591 1593 1594 1594 1595 1595 1595 1596 1596 1597 1598 1598 1599 1600 1600 1601 1601 1601 1602 1602 1603 1603 1603 1603 1603 1604 1604 1604 1604 1604 1605 1605 1605 1605 1606 1606 1606 1606 1606 1606 1606 1606 1607 1607 1607 1607 1607 1607 1607 1607 1607 1607 1606 1606 1606 1606 1605 1605 1605 1604 1604 1603 1602 1601 1601 1600 1599 1599
1568 1570 1571 1573 1575 1576 1578 1579 1580 1581 1583 1585 1586 1587 1588 1589 1590 1591 1592 1593 1594 1595 1595 1595 1596 1596 1597 1597 1598 1598 1599 1600 1600 1601 1601 1601 1602 1602 1603 1603 1603 1603 1603 1603 1604 1604 1604 1604 1605 1605 1605 1605 1606 1606 1606 1606 1606 1606 1606 1606 1607 1607 1607 1607 1607 1607 1607 1607 1606 1606 1606 1605 1605 1605 1605 1604 1604 1604 1603 1602 1601 1601 1600 1599 1599
1567 1568 1570 1571 1573 1575 1576 1578 1579 1580 1582 1584 1585 1586 1588 1588 1590 1590 1591 1593 1593 1594 1595 1595 1595 1596 1596 1597 1598 1598 1598 1599 1600 1600 1601 1601 1601 1602 1602 1603 1603 1603 1603 1603 1604 1604 1604 1604 1604 1605 1605 1605 1606 1606 1606 1606 1606 1606 1606 1606 1606 1606 1606 1606 1607 1606 1606 1606 1606 1606 1606 1605 1605 1604 1604 1604 1603 1603 1602 1602 1601 1600 1600 1599 1599